#timestamp,LO_Frequency,Hit,StdDev 
1581315195.1,286047012.6,P
1581315215.9,286047015.0,P
1581315235.7,286047016.8,P
1581315255.5,286047017.9,Y
1581315275.4,286047005.6,P
1581315295.2,286047003.2,N
1581315315.0,286047003.0,N
1581315315.9,286047003.0,N
1581315335.8,286047003.1,N
1581315355.6,286047003.5,N
1581315375.5,286047003.7,N
1581315395.3,286047003.5,N
1581315415.1,286047005.6,N
1581315435.9,286047005.4,N
1581315455.7,286047002.9,N
1581315475.5,286047004.8,N
1581315495.4,286047005.4,N
1581315515.2,286047004.8,N
1581315535.1,286047007.6,N
1581315536.0,286047007.6,N
1581315555.8,286047005.3,N
1581315575.6,286047005.6,N
1581315595.5,286047003.5,N
1581315615.3,286047003.9,N
1581315635.1,286047003.2,N
1581315655.9,286047003.6,N
1581315675.7,286047003.6,N
1581315695.6,286047003.3,N
1581315715.4,286047005.4,N
1581315735.2,286047005.7,N
1581315755.1,286047005.7,N
1581315756.0,286047005.7,N
1581315775.8,286047004.8,N
1581315795.6,286047006.8,Y
1581315815.5,286047002.3,P
1581315835.3,286047002.3,N
1581315855.2,286047001.6,N
1581315875.9,286047004.3,Y
1581315895.7,286047000.6,P
1581315915.6,286047000.8,N
1581315935.4,286047000.4,N
1581315955.2,286047001.2,N
1581315975.1,286047001.0,N
1581315976.0,286047001.0,N
1581315995.8,286047000.4,N
1581316015.7,286047000.0,N
1581316035.5,286047000.3,N
1581316055.3,286047000.6,N
1581316075.2,286046999.8,N
1581316095.0,286046999.9,N
1581316095.9,286046999.9,N
1581316115.8,286046999.7,N
1581316135.6,286047000.0,N
1581316155.4,286047000.6,N
1581316175.3,286046999.7,N
1581316195.1,286046999.8,N
1581316215.9,286047002.6,Y
1581316235.7,286047002.6,P
1581316255.5,286047002.3,N
1581316275.4,286047000.1,N
1581316295.2,286047002.7,N
1581316315.0,286047002.1,N
1581316315.9,286047002.1,N
1581316335.8,286047000.2,N
1581316355.6,286047000.4,N
1581316375.5,286047002.1,N
1581316395.3,286047001.6,N
1581316415.1,286047002.0,N
1581316435.9,286047002.1,N
1581316455.7,286047003.8,Y
1581316475.6,286047004.4,P
1581316495.4,286047004.7,P
1581316515.2,286047007.1,P
1581316535.1,286047008.0,Y
1581316536.0,286047008.0,P
1581316555.8,286047001.5,N
1581316575.6,286047002.4,N
1581316595.5,286047000.2,N
1581316615.3,286047000.3,N
1581316635.2,286047002.4,N
1581316655.9,286047002.2,N
1581316675.7,286047002.8,N
1581316695.6,286046999.8,N
1581316715.4,286046999.7,N
1581316735.2,286047001.6,N
1581316755.1,286047003.6,N
1581316756.0,286047003.6,N
1581316775.8,286047003.0,N
1581316795.7,286047003.4,N
1581316815.5,286047003.5,N
1581316835.3,286047006.0,Y
1581316855.2,286047003.6,P
1581316875.0,286047003.7,P
1581316875.9,286047003.7,P
1581316895.7,286047001.7,Y
1581316915.6,286046998.4,P
1581316935.4,286046998.6,N
1581316955.3,286046998.3,N
1581316975.1,286046999.4,N
1581316976.0,286046999.4,N
1581316995.8,286047000.5,N
1581317015.7,286047002.2,N
1581317035.5,286047000.1,N
1581317055.3,286047000.9,N
1581317075.2,286047000.3,N
1581317095.0,286046998.2,N
1581317095.9,286046998.2,N
1581317115.8,286046998.8,N
1581317135.6,286046999.2,N
1581317155.4,286046996.5,N
1581317175.3,286046996.6,N
1581317195.1,286046996.8,N
1581317215.8,286046997.6,N
1581317235.7,286046993.4,Y
1581317255.5,286046997.4,P
1581317275.4,286046997.6,N
1581317295.2,286046996.3,P
1581317315.0,286046996.2,Y
1581317315.9,286046996.2,P
1581317335.8,286046997.0,P
1581317355.6,286046996.6,P
1581317375.5,286046997.2,Y
1581317395.3,286047000.9,P
1581317415.1,286047001.1,N
1581317435.9,286046998.7,N
1581317455.7,286047001.2,N
1581317475.5,286047000.8,N
1581317495.4,286047001.0,N
1581317515.2,286047001.1,N
1581317535.1,286047000.6,N
1581317536.0,286047000.6,N
1581317555.8,286047001.2,N
1581317575.6,286047000.3,N
1581317595.5,286047000.3,N
1581317615.3,286047000.8,N
1581317635.1,286047000.0,N
1581317655.9,286047000.5,N
1581317675.7,286046998.3,N
1581317695.6,286046998.2,N
1581317715.4,286046998.6,N
1581317735.2,286046998.1,N
1581317755.1,286046999.5,N
1581317756.0,286046999.5,N
1581317775.8,286046998.4,N
1581317795.6,286046999.4,N
1581317815.5,286046998.4,N
1581317835.3,286046998.8,N
1581317855.2,286046998.6,N
1581317875.9,286046998.7,N
1581317895.7,286046999.8,N
1581317915